Change the Weather History Date:

Sunday, July 14, 2013

  Actual Average Record
Temperature  
Mean Temperature 82 °F 79 °F  
Max Temperature 97 °F 91 °F 105 °F (1979)
Min Temperature 66 °F 67 °F 49 °F (1918)
Degree Days  
Heating Degree Days 0 0  
Month to date heating degree days 0 0  
Since 1 June heating degree days 0 4  
Since 1 July heating degree days 0 0  
Cooling Degree Days 17 14  
Month to date cooling degree days 205 192  
Year to date cooling degree days 777 592  
Since 1 June cooling degree days 660 494  
Growing Degree Days 32 (Base 50)    
Moisture  
Dew Point 54 °F    
Average Humidity 41    
Maximum Humidity 61    
Minimum Humidity 20    
Precipitation  
Precipitation 0.08 in 0.05 in 1.82 in (1930)
Month to date precipitation 1.09 0.59  
Year to date precipitation 1.79 3.79  
Snow  
Snow 0.00 in - - ()
Month to date snowfall 0.0  
Since 1 June snowfall 0.0  
Since 1 July snowfall 0.0  
Snow Depth 0.00 in    
Sea Level Pressure  
Sea Level Pressure 29.90 in    
Wind  
Wind Speed 8 mph (NE)    
Max Wind Speed 45 mph    
Max Gust Speed 54 mph    
Visibility 10 miles    
Events Rain , Thunderstorm    
T = Trace of Precipitation, MM = Missing Value Source: NWS Daily Summary

Daily Weather History Graph

Daily Weather History Graph

Search for Another Location

Airport or City:

Trip Planner

Search our weather history database for the weather conditions in past years. The results will help you decide how hot, cold, wet, or windy it might be!

Date:

Astronomy

Jul. 14, 2013 Rise Set
Actual Time 6:03 AM MDT 8:21 PM MDT
Civil Twilight 5:34 AM MDT 8:50 PM MDT
Nautical Twilight 4:58 AM MDT 9:25 PM MDT
Astronomical Twilight 4:19 AM MDT 10:04 PM MDT
Moon 12:06 PM MDT (7/14) 11:52 PM MDT (7/14)
Length of Visible Light 15h 15m
Length of Day
14h 17m
Waxing Crescent, 35% of the Moon is Illuminated
Jul 14
Waxing Crescent
Jul 15
First Quarter
Jul 22
Full
Jul 29
Last Quarter
Aug 6
New

Hourly Weather History & Observations

Time (MDT) Temp. Heat Index Dew Point Humidity Pressure Visibility Wind Dir Wind Speed Gust Speed Precip Events Conditions
12:07 AM 73.4 °F - 55.4 °F 53% 30.19 in 10.0 mi East 9.2 mph - 0.00 in   Mostly Cloudy
12:52 AM 73.9 °F - 55.0 °F 52% 29.91 in 10.0 mi Calm Calm - 0.00 in   Overcast
1:52 AM 73.9 °F - 55.9 °F 53% 29.88 in 10.0 mi West 4.6 mph - N/A   Overcast
2:52 AM 75.0 °F - 55.9 °F 51% 29.88 in 10.0 mi Calm Calm - N/A   Overcast
3:52 AM 75.0 °F - 55.0 °F 50% 29.88 in 10.0 mi North 4.6 mph - N/A   Mostly Cloudy
4:52 AM 73.9 °F - 55.0 °F 52% 29.88 in 10.0 mi North 5.8 mph - N/A   Mostly Cloudy
5:52 AM 73.9 °F - 55.9 °F 53% 29.90 in 10.0 mi North 6.9 mph - N/A   Mostly Cloudy
6:52 AM 73.0 °F - 55.0 °F 53% 29.91 in 10.0 mi NNW 4.6 mph - N/A   Mostly Cloudy
7:52 AM 75.0 °F - 55.0 °F 50% 29.91 in 10.0 mi WNW 3.5 mph - N/A   Scattered Clouds
8:52 AM 75.9 °F - 55.0 °F 48% 29.93 in 10.0 mi North 4.6 mph - N/A   Partly Cloudy
9:52 AM 80.1 °F 80.0 °F 54.0 °F 40% 29.91 in 10.0 mi Calm Calm - N/A   Scattered Clouds
10:52 AM 82.0 °F - 52.0 °F 35% 29.91 in 10.0 mi Calm Calm - N/A   Scattered Clouds
11:52 AM 86.0 °F - 52.0 °F 31% 29.89 in 10.0 mi Calm Calm - N/A   Scattered Clouds
12:52 PM 88.0 °F - 48.9 °F 26% 29.84 in 10.0 mi Calm Calm - N/A   Scattered Clouds
1:52 PM 91.0 °F - 48.9 °F 23% 29.81 in 10.0 mi West 9.2 mph - N/A   Scattered Clouds
2:52 PM 91.9 °F - 48.9 °F 23% 29.76 in 10.0 mi Variable 4.6 mph - N/A   Scattered Clouds
3:52 PM 93.9 °F - 48.9 °F 21% 29.72 in 10.0 mi WNW 6.9 mph - N/A   Scattered Clouds
4:52 PM 95.0 °F - 48.0 °F 20% 29.69 in 10.0 mi WNW 4.6 mph - N/A   Mostly Cloudy
5:52 PM 91.9 °F - 46.0 °F 21% 29.70 in 10.0 mi Variable 6.9 mph - 0.00 in   Mostly Cloudy
5:56 PM 87.8 °F - 51.8 °F 29% 30.00 in 8.0 mi ESE 27.6 mph 33.4 mph N/A   Squalls
6:10 PM 84.2 °F 82.8 °F 53.6 °F 35% 30.00 in 5.0 mi East 31.1 mph 44.9 mph N/A   Widespread Dust
6:52 PM 80.1 °F 80.1 °F 55.0 °F 42% 29.75 in 3.0 mi East 39.1 mph 48.3 mph N/A   Mostly Cloudy
7:02 PM 78.8 °F - 55.4 °F 44% 30.05 in 5.0 mi East 28.8 mph 43.7 mph 0.00 in Rain , Thunderstorm Light Thunderstorms and Rain
7:52 PM 73.9 °F - 57.9 °F 57% 29.87 in 10.0 mi ENE 25.3 mph 36.8 mph 0.00 in Rain , Thunderstorm Light Thunderstorms and Rain
8:52 PM 72.0 °F - 57.9 °F 61% 29.92 in 10.0 mi East 19.6 mph 25.3 mph 0.00 in Rain , Thunderstorm Light Thunderstorms and Rain
9:26 PM 69.8 °F - 62.6 °F 78% 30.19 in 10.0 mi SE 9.2 mph - 0.01 in Rain Light Rain
9:52 PM 70.0 °F - 62.1 °F 76% 29.98 in 10.0 mi SSE 4.6 mph - 0.03 in Rain Light Rain
10:52 PM 66.9 °F - 62.1 °F 84% 29.98 in 10.0 mi SW 8.1 mph - 0.05 in   Overcast
11:52 PM 66.9 °F - 62.1 °F 84% 29.95 in 10.0 mi South 10.4 mph - 0.00 in Rain Light Rain